Time,TemperatureF,DewpointF,PressureIn,WindDirection,WindDirectionDegrees,WindSpeedMPH,WindSpeedGustMPH,Humidity,HourlyPrecipIn,Conditions,Clouds,dailyrainin,SoftwareType,DateUTC
2013-03-17 00:03:00,27.1,21.0,30.18,North,5,2.0,-999.0,77,-99.99,,,0.00,weatherlink.com 1.10,2013-03-17 05:03:00,
2013-03-17 00:18:00,26.9,21.0,30.18,North,355,4.0,-999.0,78,-99.99,,,0.00,weatherlink.com 1.10,2013-03-17 05:18:00,
2013-03-17 00:33:00,26.7,20.0,30.18,North,360,2.0,-999.0,77,-99.99,,,0.00,weatherlink.com 1.10,2013-03-17 05:33:00,
2013-03-17 00:48:00,26.5,21.0,30.18,WNW,295,1.0,-999.0,78,-99.99,,,0.00,weatherlink.com 1.10,2013-03-17 05:48:00,
2013-03-17 01:18:00,26.1,20.0,30.17,North,11,3.0,-999.0,79,-99.99,,,0.00,weatherlink.com 1.10,2013-03-17 06:18:00,
2013-03-17 01:33:00,26.0,21.0,30.18,NNE,13,0.0,-999.0,80,-99.99,,,0.00,weatherlink.com 1.10,2013-03-17 06:33:00,
2013-03-17 01:48:00,25.7,20.0,30.18,NNW,327,2.0,-999.0,80,-99.99,,,0.00,weatherlink.com 1.10,2013-03-17 06:48:00,
2013-03-17 02:03:00,25.6,20.0,30.18,NNW,327,5.0,-999.0,79,-99.99,,,0.00,weatherlink.com 1.10,2013-03-17 07:03:00,
2013-03-17 02:18:00,25.5,19.0,30.18,North,355,4.0,-999.0,76,-99.99,,,0.00,weatherlink.com 1.10,2013-03-17 07:18:00,
2013-03-17 02:33:00,25.4,19.0,30.18,North,350,7.0,-999.0,75,-99.99,,,0.00,weatherlink.com 1.10,2013-03-17 07:33:00,
2013-03-17 02:48:00,25.2,18.0,30.18,NW,323,11.0,-999.0,75,-99.99,,,0.00,weatherlink.com 1.10,2013-03-17 07:48:00,
2013-03-17 03:04:00,25.2,18.0,30.18,NNE,24,4.0,-999.0,75,-99.99,,,0.00,weatherlink.com 1.10,2013-03-17 08:04:00,
2013-03-17 03:19:00,25.1,18.0,30.17,NE,36,5.0,-999.0,74,-99.99,,,0.00,weatherlink.com 1.10,2013-03-17 08:19:00,
2013-03-17 03:34:00,25.0,18.0,30.17,NNE,15,3.0,-999.0,74,-99.99,,,0.00,weatherlink.com 1.10,2013-03-17 08:34:00,
2013-03-17 03:49:00,24.8,18.0,30.16,NNW,336,5.0,-999.0,74,-99.99,,,0.00,weatherlink.com 1.10,2013-03-17 08:49:00,
2013-03-17 04:04:00,24.5,17.0,30.16,NNE,14,4.0,-999.0,73,-99.99,,,0.00,weatherlink.com 1.10,2013-03-17 09:04:00,
2013-03-17 04:19:00,24.2,16.0,30.16,NNE,13,8.0,-999.0,72,-99.99,,,0.00,weatherlink.com 1.10,2013-03-17 09:19:00,
2013-03-17 04:34:00,23.9,16.0,30.16,NE,40,7.0,-999.0,72,-99.99,,,0.00,weatherlink.com 1.10,2013-03-17 09:34:00,
2013-03-17 04:49:00,23.7,16.0,30.16,NE,34,8.0,-999.0,72,-99.99,,,0.00,weatherlink.com 1.10,2013-03-17 09:49:00,
2013-03-17 05:04:00,23.3,14.0,30.17,NNE,26,7.0,-999.0,68,-99.99,,,0.00,weatherlink.com 1.10,2013-03-17 10:04:00,
2013-03-17 05:19:00,23.0,13.0,30.18,NE,40,10.0,-999.0,65,-99.99,,,0.00,weatherlink.com 1.10,2013-03-17 10:19:00,
2013-03-17 05:34:00,22.7,13.0,30.19,NE,51,12.0,-999.0,66,-99.99,,,0.00,weatherlink.com 1.10,2013-03-17 10:34:00,
2013-03-17 05:49:00,22.5,13.0,30.19,NE,52,4.0,-999.0,67,-99.99,,,0.00,weatherlink.com 1.10,2013-03-17 10:49:00,
2013-03-17 06:19:00,22.0,13.0,30.21,NE,48,9.0,-999.0,67,-99.99,,,0.00,weatherlink.com 1.10,2013-03-17 11:19:00,
2013-03-17 06:34:00,21.8,12.0,30.21,NE,46,11.0,-999.0,66,-99.99,,,0.00,weatherlink.com 1.10,2013-03-17 11:34:00,
2013-03-17 06:49:00,21.6,12.0,30.22,ENE,69,6.0,-999.0,67,-99.99,,,0.00,weatherlink.com 1.10,2013-03-17 11:49:00,
2013-03-17 07:04:00,21.5,12.0,30.22,NE,42,7.0,-999.0,68,-99.99,,,0.00,weatherlink.com 1.10,2013-03-17 12:04:00,
2013-03-17 07:19:00,21.4,12.0,30.22,NE,53,8.0,-999.0,68,-99.99,,,0.00,weatherlink.com 1.10,2013-03-17 12:19:00,
2013-03-17 07:34:00,21.6,13.0,30.22,ENE,74,1.0,-999.0,68,-99.99,,,0.00,weatherlink.com 1.10,2013-03-17 12:34:00,
2013-03-17 07:49:00,21.6,12.0,30.22,ENE,71,6.0,-999.0,67,-99.99,,,0.00,weatherlink.com 1.10,2013-03-17 12:49:00,
2013-03-17 08:04:00,21.8,13.0,30.22,NE,51,5.0,-999.0,68,-99.99,,,0.00,weatherlink.com 1.10,2013-03-17 13:04:00,
2013-03-17 08:19:00,21.9,12.0,30.22,ENE,63,6.0,-999.0,66,-99.99,,,0.00,weatherlink.com 1.10,2013-03-17 13:19:00,
2013-03-17 08:34:00,23.1,13.0,30.23,NE,35,7.0,-999.0,65,-99.99,,,0.00,weatherlink.com 1.10,2013-03-17 13:34:00,
2013-03-17 08:49:00,23.0,12.0,30.24,ENE,78,6.0,-999.0,64,-99.99,,,0.00,weatherlink.com 1.10,2013-03-17 13:49:00,
2013-03-17 09:04:00,23.5,13.0,30.24,ENE,76,9.0,-999.0,64,-99.99,,,0.00,weatherlink.com 1.10,2013-03-17 14:04:00,
2013-03-17 09:19:00,24.4,13.0,30.24,NNE,30,5.0,-999.0,63,-99.99,,,0.00,weatherlink.com 1.10,2013-03-17 14:19:00,
2013-03-17 09:34:00,24.9,13.0,30.24,East,84,3.0,-999.0,62,-99.99,,,0.00,weatherlink.com 1.10,2013-03-17 14:34:00,
2013-03-17 09:49:00,25.3,13.0,30.24,East,99,6.0,-999.0,61,-99.99,,,0.00,weatherlink.com 1.10,2013-03-17 14:49:00,
2013-03-17 10:04:00,26.2,14.0,30.23,ENE,76,6.0,-999.0,60,-99.99,,,0.00,weatherlink.com 1.10,2013-03-17 15:04:00,
2013-03-17 10:19:00,25.9,14.0,30.23,East,100,10.0,-999.0,62,-99.99,,,0.00,weatherlink.com 1.10,2013-03-17 15:19:00,
2013-03-17 10:34:00,27.7,16.0,30.23,East,86,2.0,-999.0,61,-99.99,,,0.00,weatherlink.com 1.10,2013-03-17 15:34:00,
2013-03-17 10:49:00,27.2,15.0,30.23,East,101,10.0,-999.0,60,-99.99,,,0.00,weatherlink.com 1.10,2013-03-17 15:49:00,
2013-03-17 11:04:00,28.1,16.0,30.23,East,96,13.0,-999.0,60,-99.99,,,0.00,weatherlink.com 1.10,2013-03-17 16:04:00,
2013-03-17 11:19:00,27.8,16.0,30.22,ESE,111,7.0,-999.0,61,-99.99,,,0.00,weatherlink.com 1.10,2013-03-17 16:19:00,
2013-03-17 11:35:00,29.3,17.0,30.21,SE,141,4.0,-999.0,61,-99.99,,,0.00,weatherlink.com 1.10,2013-03-17 16:35:00,
2013-03-17 11:50:00,30.3,18.0,30.21,East,91,7.0,-999.0,60,-99.99,,,0.00,weatherlink.com 1.10,2013-03-17 16:50:00,
2013-03-17 12:05:00,30.7,19.0,30.20,South,172,6.0,-999.0,62,-99.99,,,0.00,weatherlink.com 1.10,2013-03-17 17:05:00,
2013-03-17 12:20:00,30.3,19.0,30.20,SE,132,7.0,-999.0,62,-99.99,,,0.00,weatherlink.com 1.10,2013-03-17 17:20:00,
2013-03-17 12:35:00,31.2,20.0,30.19,East,98,11.0,-999.0,63,-99.99,,,0.00,weatherlink.com 1.10,2013-03-17 17:35:00,
2013-03-17 12:50:00,31.6,20.0,30.18,East,90,14.0,-999.0,63,-99.99,,,0.00,weatherlink.com 1.10,2013-03-17 17:50:00,
2013-03-17 13:05:00,31.2,21.0,30.18,East,98,10.0,-999.0,65,-99.99,,,0.00,weatherlink.com 1.10,2013-03-17 18:05:00,
2013-03-17 13:20:00,30.6,21.0,30.16,ESE,102,4.0,-999.0,67,-99.99,,,0.00,weatherlink.com 1.10,2013-03-17 18:20:00,
2013-03-17 13:35:00,31.2,21.0,30.15,East,96,5.0,-999.0,66,-99.99,,,0.00,weatherlink.com 1.10,2013-03-17 18:35:00,
2013-03-17 13:50:00,30.8,21.0,30.15,ESE,103,5.0,-999.0,67,-99.99,,,0.00,weatherlink.com 1.10,2013-03-17 18:50:00,
2013-03-17 14:05:00,30.9,22.0,30.14,East,97,8.0,-999.0,69,-99.99,,,0.00,weatherlink.com 1.10,2013-03-17 19:05:00,
2013-03-17 14:20:00,31.1,22.0,30.14,East,83,9.0,-999.0,69,-99.99,,,0.00,weatherlink.com 1.10,2013-03-17 19:20:00,
2013-03-17 14:35:00,31.4,22.0,30.13,ESE,122,11.0,-999.0,67,-99.99,,,0.00,weatherlink.com 1.10,2013-03-17 19:35:00,
2013-03-17 14:50:00,31.4,22.0,30.13,East,101,7.0,-999.0,68,-99.99,,,0.00,weatherlink.com 1.10,2013-03-17 19:50:00,
2013-03-17 15:05:00,31.6,22.0,30.13,ESE,104,4.0,-999.0,68,-99.99,,,0.00,weatherlink.com 1.10,2013-03-17 20:05:00,
2013-03-17 15:20:00,31.6,22.0,30.11,ESE,109,10.0,-999.0,69,-99.99,,,0.00,weatherlink.com 1.10,2013-03-17 20:20:00,
2013-03-17 15:35:00,31.8,23.0,30.11,East,101,11.0,-999.0,70,-99.99,,,0.00,weatherlink.com 1.10,2013-03-17 20:35:00,
2013-03-17 15:50:00,32.0,23.0,30.10,SE,136,9.0,-999.0,70,-99.99,,,0.00,weatherlink.com 1.10,2013-03-17 20:50:00,
2013-03-17 16:05:00,32.2,23.0,30.09,ESE,121,6.0,-999.0,69,-99.99,,,0.00,weatherlink.com 1.10,2013-03-17 21:05:00,
2013-03-17 16:20:00,32.1,23.0,30.09,ESE,103,12.0,-999.0,68,-99.99,,,0.00,weatherlink.com 1.10,2013-03-17 21:20:00,
2013-03-17 16:35:00,32.2,23.0,30.08,ESE,103,10.0,-999.0,69,-99.99,,,0.00,weatherlink.com 1.10,2013-03-17 21:35:00,
2013-03-17 16:50:00,32.4,23.0,30.07,East,100,10.0,-999.0,68,-99.99,,,0.00,weatherlink.com 1.10,2013-03-17 21:50:00,
2013-03-17 17:05:00,32.8,24.0,30.07,SSE,147,4.0,-999.0,69,-99.99,,,0.00,weatherlink.com 1.10,2013-03-17 22:05:00,
2013-03-17 17:20:00,33.4,23.0,30.07,SSE,156,15.0,-999.0,67,-99.99,,,0.00,weatherlink.com 1.10,2013-03-17 22:20:00,
2013-03-17 17:35:00,32.6,23.0,30.06,SE,139,6.0,-999.0,68,-99.99,,,0.00,weatherlink.com 1.10,2013-03-17 22:35:00,
2013-03-17 17:50:00,32.6,23.0,30.06,ESE,105,8.0,-999.0,68,-99.99,,,0.00,weatherlink.com 1.10,2013-03-17 22:50:00,
2013-03-17 18:05:00,32.6,23.0,30.05,East,98,11.0,-999.0,69,-99.99,,,0.00,weatherlink.com 1.10,2013-03-17 23:05:00,
2013-03-17 18:20:00,32.4,23.0,30.05,ESE,119,9.0,-999.0,69,-99.99,,,0.00,weatherlink.com 1.10,2013-03-17 23:20:00,
2013-03-17 18:35:00,32.2,23.0,30.05,ESE,114,15.0,-999.0,69,-99.99,,,0.00,weatherlink.com 1.10,2013-03-17 23:35:00,
2013-03-17 18:50:00,32.0,23.0,30.05,ESE,110,10.0,-999.0,69,-99.99,,,0.00,weatherlink.com 1.10,2013-03-17 23:50:00,
2013-03-17 19:05:00,31.6,23.0,30.04,ESE,107,7.0,-999.0,70,-99.99,,,0.00,weatherlink.com 1.10,2013-03-18 00:05:00,
2013-03-17 19:20:00,31.3,23.0,30.04,ENE,74,5.0,-999.0,72,-99.99,,,0.00,weatherlink.com 1.10,2013-03-18 00:20:00,
2013-03-17 19:35:00,31.1,23.0,30.04,East,86,5.0,-999.0,72,-99.99,,,0.00,weatherlink.com 1.10,2013-03-18 00:35:00,
2013-03-17 19:50:00,30.9,23.0,30.04,ESE,108,11.0,-999.0,72,-99.99,,,0.00,weatherlink.com 1.10,2013-03-18 00:50:00,
2013-03-17 20:05:00,30.6,23.0,30.03,ESE,109,17.0,-999.0,74,-99.99,,,0.00,weatherlink.com 1.10,2013-03-18 01:05:00,
2013-03-17 20:20:00,30.1,23.0,30.03,ENE,67,4.0,-999.0,76,-99.99,,,0.00,weatherlink.com 1.10,2013-03-18 01:20:00,
2013-03-17 20:35:00,29.7,23.0,30.03,ESE,110,5.0,-999.0,77,-99.99,,,0.00,weatherlink.com 1.10,2013-03-18 01:35:00,
2013-03-17 20:50:00,29.2,23.0,30.03,East,98,6.0,-999.0,76,-99.99,,,0.00,weatherlink.com 1.10,2013-03-18 01:50:00,
2013-03-17 21:05:00,28.9,22.0,30.03,East,79,1.0,-999.0,76,-99.99,,,0.00,weatherlink.com 1.10,2013-03-18 02:05:00,
2013-03-17 21:20:00,28.8,22.0,30.03,ESE,104,9.0,-999.0,76,-99.99,,,0.00,weatherlink.com 1.10,2013-03-18 02:20:00,
2013-03-17 21:35:00,28.6,22.0,30.02,ESE,109,6.0,-999.0,76,-99.99,,,0.00,weatherlink.com 1.10,2013-03-18 02:35:00,
2013-03-17 21:50:00,28.3,22.0,30.02,East,93,7.0,-999.0,77,-99.99,,,0.00,weatherlink.com 1.10,2013-03-18 02:50:00,
2013-03-17 22:05:00,28.3,22.0,30.02,ESE,107,4.0,-999.0,78,-99.99,,,0.00,weatherlink.com 1.10,2013-03-18 03:05:00,
2013-03-17 22:20:00,28.2,22.0,30.01,East,95,7.0,-999.0,79,-99.99,,,0.00,weatherlink.com 1.10,2013-03-18 03:20:00,
2013-03-17 22:35:00,28.1,22.0,30.00,East,85,3.0,-999.0,79,-99.99,,,0.00,weatherlink.com 1.10,2013-03-18 03:35:00,
2013-03-17 22:50:00,28.1,23.0,30.00,ESE,113,6.0,-999.0,80,-99.99,,,0.00,weatherlink.com 1.10,2013-03-18 03:50:00,
2013-03-17 23:05:00,28.1,23.0,29.99,East,96,7.0,-999.0,81,-99.99,,,0.00,weatherlink.com 1.10,2013-03-18 04:05:00,
2013-03-17 23:21:00,28.1,23.0,29.98,East,84,2.0,-999.0,81,-99.99,,,0.00,weatherlink.com 1.10,2013-03-18 04:21:00,
2013-03-17 23:36:00,28.1,23.0,29.98,ENE,76,3.0,-999.0,82,-99.99,,,0.00,weatherlink.com 1.10,2013-03-18 04:36:00,
2013-03-17 23:51:00,28.2,23.0,29.98,ESE,110,6.0,-999.0,81,-99.99,,,0.00,weatherlink.com 1.10,2013-03-18 04:51:00,